This is the latest recevied weather packets stored in our database for station/object NK7I. If no packets are shown the sender has not sent any weather packets the latest 10 day(s).
| Time | Temp. | Humidity | Pressure | Rain* | Wind** | Luminosity | Snow |
|---|---|---|---|---|---|---|---|
| 1777557382 | 2.78° C | 90% | 1024.9 hPa | 0 mm | - | 35 W/m² | - |
| 1777557082 | 2.22° C | 90% | 1025 hPa | 0 mm | - | 35 W/m² | - |
| 1777556783 | 2.22° C | 90% | 1025 hPa | 0 mm | - | 33 W/m² | - |
| 1777556482 | 2.22° C | 90% | 1025 hPa | 0 mm | - | 32 W/m² | - |
| 1777556182 | 2.22° C | 90% | 1024.8 hPa | 0 mm | - | 32 W/m² | - |
| 1777555882 | 2.22° C | 90% | 1024.8 hPa | 0 mm | - | 30 W/m² | - |
| 1777555583 | 2.22° C | 89% | 1024.8 hPa | 0 mm | - | 28 W/m² | - |
| 1777555282 | 2.22° C | 89% | 1024.7 hPa | 0 mm | - | 26 W/m² | - |
| 1777554982 | 2.22° C | 88% | 1024.7 hPa | 0 mm | - | 25 W/m² | - |
| 1777554682 | 2.22° C | 88% | 1024.6 hPa | 0 mm | - | 25 W/m² | - |
| 1777554382 | 2.22° C | 88% | 1024.7 hPa | 0 mm | - | 23 W/m² | - |
| 1777554083 | 2.22° C | 88% | 1024.6 hPa | 0 mm | - | 19 W/m² | - |
| 1777553782 | 2.22° C | 88% | 1024.5 hPa | 0 mm | - | 18 W/m² | - |
| 1777553483 | 2.22° C | 88% | 1024.5 hPa | 0 mm | - | 16 W/m² | - |
| 1777553182 | 2.22° C | 88% | 1024.3 hPa | 0 mm | - | 14 W/m² | - |
| 1777552882 | 2.22° C | 89% | 1024.3 hPa | 0 mm | - | 11 W/m² | - |
| 1777552583 | 2.22° C | 89% | 1024.4 hPa | 0 mm | - | 9 W/m² | - |
| 1777552282 | 2.22° C | 89% | 1024.4 hPa | 0 mm | - | 7 W/m² | - |
| 1777551982 | 2.22° C | 89% | 1024.4 hPa | 0 mm | - | 5 W/m² | - |
| 1777551682 | 2.22° C | 89% | 1024.3 hPa | 0 mm | - | 0 W/m² | - |
| 1777551382 | 2.22° C | 88% | 1024.3 hPa | 0 mm | - | 0 W/m² | - |
| 1777551083 | 2.22° C | 88% | 1024.2 hPa | 0 mm | - | 0 W/m² | - |
| 1777550782 | 2.22° C | 88% | 1024.3 hPa | 0 mm | - | 0 W/m² | - |
| 1777550483 | 2.22° C | 88% | 1024.3 hPa | 0 mm | - | 0 W/m² | - |
| 1777550183 | 2.22° C | 87% | 1024.3 hPa | 0 mm | - | 0 W/m² | - |
* Rain latest hour (hover to see other rain measurements)
** Current wind speed in m/s (hover to see current wind gust speed)